Dickinson, ND

9:02 AM MDT on April 20, 2018 (GMT -0600)
Dickinson Municipal

Weather History for KDIK - February, 2014

Change the Weather History Date:

Friday, February 21, 2014

  Actual Average Record
Temperature  
Mean Temperature 20 °F 22 °F  
Max Temperature 31 °F 32 °F 65 °F (1995)
Min Temperature 9 °F 11 °F -28 °F (1939)
Degree Days  
Heating Degree Days 45 43  
Month to date heating degree days 1097 953  
Since 1 July heating degree days 6230 6000  
Cooling Degree Days 0 0  
Month to date cooling degree days 0 0  
Year to date cooling degree days 0 0  
Moisture  
Dew Point 10 °F    
Average Humidity 67    
Maximum Humidity 84    
Minimum Humidity 49    
Precipitation  
Precipitation 0.00 in 0.02 in 0.30 in (1975)
Month to date precipitation 0.10 0.22  
Year to date precipitation 0.14 0.52  
Sea Level Pressure  
Sea Level Pressure 29.81 in    
Wind  
Wind Speed 8 mph (NNW)    
Max Wind Speed 16 mph    
Max Gust Speed 20 mph    
Visibility 10 miles    
Events      
T = Trace of Precipitation, MM = Missing Value Source: NWS Daily Summary

Daily Weather History Graph

Daily Weather History Graph

Search for Another Location

Airport or City:

Astronomy

Feb. 21, 2014 Rise Set
Actual Time 6:45 AM MST 5:25 PM MST
Civil Twilight 6:14 AM MST 5:56 PM MST
Nautical Twilight 5:39 AM MST 6:31 PM MST
Astronomical Twilight 5:04 AM MST 7:06 PM MST
Moon No Moon Rise 9:45 AM MST (2/21)
Length of Visible Light 11h 41m
Length of Day
10h 40m
Waning Gibbous, 60% of the Moon is Illuminated
Feb 21
Waning Gibbous
Feb 22
Last Quarter
Mar 1
New
Mar 8
First Quarter
Mar 16
Full

Hourly Weather History & Observations

Time (MST) Temp. Windchill Dew Point Humidity Pressure Visibility Wind Dir Wind Speed Gust Speed Precip Events Conditions
12:56 AM 12.0 °F - 8.1 °F 84% 29.76 in 10.0 mi Calm Calm - N/A   Partly Cloudy
1:56 AM 12.0 °F 2.7 °F 8.1 °F 84% 29.76 in 10.0 mi NE 5.8 mph - N/A   Clear
2:56 AM 10.9 °F -1.8 °F 6.1 °F 81% 29.76 in 10.0 mi East 9.2 mph - N/A   Partly Cloudy
3:56 AM 10.0 °F -0.9 °F 3.0 °F 73% 29.76 in 10.0 mi ENE 6.9 mph - N/A   Clear
4:56 AM 12.0 °F 5.9 °F 6.1 °F 77% 29.78 in 10.0 mi ENE 3.5 mph - N/A   Overcast
5:56 AM 12.0 °F - 5.0 °F 73% 29.80 in 10.0 mi Calm Calm - N/A   Overcast
6:56 AM 12.9 °F - 5.0 °F 71% 29.81 in 10.0 mi Calm Calm - N/A   Overcast
7:56 AM 14.0 °F 8.2 °F 3.0 °F 62% 29.83 in 10.0 mi West 3.5 mph - N/A   Overcast
8:56 AM 18.0 °F 12.7 °F 8.1 °F 65% 29.81 in 10.0 mi WNW 3.5 mph - N/A   Mostly Cloudy
9:56 AM 23.0 °F 14.7 °F 12.0 °F 63% 29.80 in 10.0 mi NNW 6.9 mph - N/A   Clear
10:44 AM 26.1 °F 16.2 °F 12.9 °F 58% 29.69 in 10.0 mi NW 10.4 mph - N/A   Mostly Cloudy
10:56 AM 27.0 °F 18.7 °F 14.0 °F 58% 29.80 in 10.0 mi North 8.1 mph - N/A   Mostly Cloudy
11:08 AM 28.0 °F 20.8 °F 14.0 °F 56% 29.68 in 10.0 mi NNW 6.9 mph - N/A   Scattered Clouds
11:22 AM 28.0 °F 19.3 °F 14.0 °F 56% 29.68 in 10.0 mi North 9.2 mph - N/A   Mostly Cloudy
11:56 AM 28.9 °F 19.8 °F 15.1 °F 56% 29.78 in 10.0 mi NNW 10.4 mph - N/A   Mostly Cloudy
12:56 PM 30.0 °F 21.1 °F 14.0 °F 51% 29.79 in 10.0 mi NNW 10.4 mph - N/A   Mostly Cloudy
1:39 PM 30.0 °F 21.7 °F 14.0 °F 51% 29.69 in 10.0 mi North 9.2 mph - N/A   Mostly Cloudy
1:49 PM 30.0 °F 21.1 °F 14.0 °F 51% 29.69 in 10.0 mi North 10.4 mph 18.4 mph N/A   Mostly Cloudy
1:56 PM 30.0 °F 20.5 °F 15.1 °F 54% 29.80 in 10.0 mi NNW 11.5 mph - N/A   Mostly Cloudy
2:08 PM 30.0 °F 21.7 °F 15.1 °F 54% 29.69 in 10.0 mi NNW 9.2 mph - N/A   Overcast
2:56 PM 28.0 °F 20.0 °F 14.0 °F 56% 29.82 in 10.0 mi North 8.1 mph - N/A   Overcast
3:56 PM 28.0 °F 17.5 °F 14.0 °F 56% 29.84 in 10.0 mi North 12.7 mph - N/A   Overcast
4:28 PM 26.1 °F 15.6 °F 12.9 °F 58% 29.73 in 10.0 mi North 11.5 mph - N/A   Overcast
4:56 PM 24.1 °F 12.5 °F 12.0 °F 60% 29.87 in 10.0 mi North 12.7 mph - N/A   Overcast
5:31 PM 23.0 °F 10.6 °F 10.9 °F 60% 29.77 in 10.0 mi North 13.8 mph - N/A   Overcast
5:56 PM 21.9 °F 9.8 °F 10.9 °F 63% 29.91 in 10.0 mi North 12.7 mph - N/A   Overcast
6:51 PM 19.4 °F 7.2 °F 12.2 °F 74% 29.79 in 10.0 mi NNW 11.5 mph - N/A   Scattered Clouds
6:56 PM 18.0 °F 5.4 °F 10.9 °F 74% 29.93 in 10.0 mi NNW 11.5 mph - N/A   Partly Cloudy
7:56 PM 14.0 °F 2.0 °F 3.9 °F 64% 29.95 in 10.0 mi NNW 9.2 mph - N/A   Clear
8:56 PM 12.9 °F 0.7 °F 3.0 °F 65% 29.96 in 10.0 mi NW 9.2 mph - N/A   Clear
9:56 PM 12.0 °F -0.4 °F 3.9 °F 70% 29.96 in 10.0 mi NW 9.2 mph - N/A   Clear
10:56 PM 10.0 °F -4.5 °F 3.0 °F 73% 29.98 in 10.0 mi NW 11.5 mph - N/A   Clear
11:56 PM 9.0 °F -6.6 °F -0.0 °F 67% 30.00 in 10.0 mi NW 12.7 mph - N/A   Scattered Clouds